Weather History for KQIR - February, 2014

Change the Weather History Date:

Friday, February 7, 2014

  Actual Average Record
Temperature  
Mean Temperature 56 °F -  
Max Temperature 65 °F - - ()
Min Temperature 48 °F - - ()
Degree Days  
Heating Degree Days 8    
Growing Degree Days 6 (Base 50)    
Moisture  
Dew Point 45 °F    
Average Humidity 63    
Maximum Humidity 89    
Minimum Humidity 42    
Precipitation  
Precipitation 0.00 in - - ()
Sea Level Pressure  
Sea Level Pressure 30.07 in    
Wind  
Wind Speed 7 mph ()    
Max Wind Speed 10 mph    
Max Gust Speed -    
Visibility 6.2 miles    
Events      
T = Trace of Precipitation, MM = Missing Value Source: Averaged Metar Reports

Daily Weather History Graph

Daily Weather History Graph

Search for Another Location

Airport or City:

Trip Planner

Search our weather history database for the weather conditions in past years. The results will help you decide how hot, cold, wet, or windy it might be!

Date:

Astronomy

Feb. 07, 2014 Rise Set
Actual Time 6:14 AM AST 5:23 PM AST
Civil Twilight 5:51 AM AST 5:47 PM AST
Nautical Twilight 5:23 AM AST 6:14 PM AST
Astronomical Twilight 4:56 AM AST 6:41 PM AST
Moon 11:23 AM AST (2/7) 12:04 AM AST (2/7)
Length of Visible Light 11h 56m
Length of Day
11h 08m
First Quarter, 56% of the Moon is Illuminated
Feb 7
First Quarter
Feb 15
Full
Feb 22
Last Quarter
Mar 1
New
Mar 8
First Quarter

Hourly Weather History & Observations

Time (AST) Temp. Dew Point Humidity Pressure Visibility Wind Dir Wind Speed Gust Speed Precip Events Conditions
1:58 AM 49.8 °F 41.9 °F 74% 30.04 in 6.2 mi NNW 8.1 mph - N/A   Clear
2:58 AM 50.0 °F 42.8 °F 76% 30.04 in 6.2 mi NNW 8.1 mph - N/A   Clear
3:58 AM 49.6 °F 44.6 °F 83% 30.03 in 6.2 mi NNW 10.4 mph - N/A   Clear
4:58 AM 50.2 °F 44.8 °F 82% 30.06 in 6.2 mi NW 8.1 mph - N/A   Clear
5:58 AM 48.7 °F 45.7 °F 89% 30.09 in 6.2 mi WNW 5.8 mph - N/A   Clear
6:58 AM 49.5 °F 41.5 °F 74% 30.12 in 6.2 mi NW 5.8 mph - N/A   Clear
7:58 AM 53.1 °F 42.8 °F 68% 30.14 in 6.2 mi WNW 6.9 mph - N/A   Clear
8:58 AM 56.3 °F 45.1 °F 66% 30.15 in 6.2 mi NNW 8.1 mph - N/A   Clear
9:58 AM 58.8 °F 45.5 °F 61% 30.14 in 6.2 mi NNW 9.2 mph - N/A   Clear
10:58 AM 60.8 °F 45.0 °F 56% 30.12 in 6.2 mi NNE 5.8 mph - N/A   Clear
11:58 AM 62.8 °F 43.3 °F 49% 30.10 in 6.2 mi WNW 5.8 mph - N/A   Clear
12:58 PM 63.7 °F 41.5 °F 44% 30.06 in 6.2 mi WNW 3.5 mph - N/A   Clear
1:58 PM 65.3 °F 41.4 °F 42% 30.04 in 6.2 mi NW 8.1 mph - N/A   Clear
2:58 PM 64.8 °F 41.7 °F 43% 30.04 in 6.2 mi NNW 5.8 mph - N/A   Mostly Cloudy
3:58 PM 64.9 °F 42.8 °F 45% 30.04 in 6.2 mi North 9.2 mph - N/A   Scattered Clouds
4:58 PM 63.7 °F 48.0 °F 57% 30.03 in 6.2 mi NE 10.4 mph - N/A   Mostly Cloudy
5:58 PM 63.0 °F 49.5 °F 61% 30.05 in 6.2 mi NE 6.9 mph - N/A   Mostly Cloudy
6:58 PM 62.6 °F 49.5 °F 62% 30.07 in 6.2 mi NE 6.9 mph - N/A   Mostly Cloudy
7:58 PM 62.4 °F 49.5 °F 63% 30.08 in 6.2 mi NE 6.9 mph - N/A   Overcast
8:58 PM 62.2 °F 48.7 °F 61% 30.08 in 6.2 mi North 6.9 mph - N/A   Overcast
9:58 PM 61.9 °F 48.6 °F 62% 30.06 in 6.2 mi North 10.4 mph - N/A   Overcast
10:58 PM 61.5 °F 48.7 °F 63% 30.06 in 6.2 mi North 10.4 mph - N/A   Mostly Cloudy
11:58 PM 61.0 °F 50.2 °F 68% 30.04 in 6.2 mi North 8.1 mph - N/A   Overcast